User: anonymous   Login
Location: Unspecified
(0.0000°N, 0.0000°E)
Time: 15:07:42
(UTC+02:00)
Language:

Centaur AC-64 - Orbit

View from above orbital plane
View from above orbital plane
View from above satellite
View from above satellite

Ground track
Ground track

The orbit data is extracted from the following two-line orbital elements,

1 15874U 85055B   16204.45106466  .00003348  00000-0  11595-2 0  9994
2 15874  23.1696 282.0391 6585917 226.9595  54.8446  3.18108041319929
Epoch (UTC): 22 July 2016 10:49:31
Eccentricity: 0.6585917
inclination: 23.1696°
perigee height: 289 km
apogee height: 26012 km
right ascension of ascending node: 282.0391°
argument of perigee: 226.9595°
revolutions per day: 3.18108041
mean anomaly at epoch: 54.8446°
orbit number at epoch: 31992

The dashed part of the orbit path shows where the satellite is in the earth's shadow,  

DLR